Orbital Elements at Epoch 2459200.5 (2020-Dec-17.0) TDB
Reference: JPL 22 (heliocentric ecliptic J2000)
Element | Value | Uncertainty (1-sigma) | Units |
e | .1668100844805714 | 3.8636e-08 | |
a | 2.697092142801425 | 1.1284e-08 | au |
q | 2.247189974608834 | 1.0477e-07 | au |
i | .9598508351582998 | 3.8995e-06 | deg |
node | 65.19023098157712 | 0.00025291 | deg |
peri | 62.52350732963596 | 0.00025327 | deg |
M | 351.6320116160635 | 1.2401e-05 | deg |
tp | 2459238.106305564043 (2021-Jan-23.60630556) | 5.5761e-05 | TDB |
period | 1617.864339898452 4.43 | 1.0153e-05 2.78e-08 | d yr |
n | .2225155664303695 | 1.3965e-09 | deg/d |
Q | 3.146994310994016 | 1.3167e-08 | au |
|
| | Orbit Determination Parameters
Additional Information
|